Погода в Шарм-эль-Шейхе

Египет     27°57′30″N   34°21′43″E
темп.,
°C
ветер,
м/с
пор.,
м/с
влажн.,
%
обл.,
%
осадки,
мм/ч
давл.,
гПа
погр.,
м
6 марта, сб
сб623:00+14с23300 0.0 102228
02:00+13с22270 0.0 102130
05:00+12с23320 0.0 102031
08:00+19с22200 0.0 1021221
11:00+23в22200 0.0 1020774
14:00+24в32220 0.0 1017856
17:00+23вюв11240 0.0 1017305
20:00+17сз12320 0.0 101823
7 марта, вс
вс723:00+15с12260 0.0 101823
02:00+14с12240 0.0 101623
05:00+13с11360 0.0 101526
08:00+21ссв01190 0.0 1016129
11:00+25юв21170 0.0 1015694
14:00+26вюв22220 0.0 1012790
17:00+24в22280 0.0 1012365
20:00+18с12430 0.0 101325
8 марта, пн
пн823:00+16ссв11410 0.0 101423
02:00+14ссз01480 0.0 101323
05:00+13в01570 0.0 101228
08:00+20всв11280 0.0 1014169
11:00+24юв21230 0.0 1013681
14:00+25вюв22210 0.0 1012941
17:00+24всв33240 0.0 1012536
20:00+19ссз233140 0.0 101432
9 марта, вт
вт923:00+16с122867 0.0 101423
02:00+14с113537 0.0 101323
05:00+13ссв113521 0.0 101328
08:00+21св112038 0.0 1015133
11:00+26юв221842 0.0 1015629
14:00+27ююв222144 0.0 1012834
17:00+26юв112387 0.0 1012195
20:00+20с123175 0.0 101323
10 марта, ср
ср1023:00+20ссв122582 0.0 101423
02:00+19с222473 0.0 101224
05:00+18с222341 0.0 101223
08:00+26всв001438 0.0 101481
11:00+30ююв44110 0.0 1013873
14:00+31ю45100 0.0 1010877
17:00+28ююв23130 0.0 1010159
20:00+21ююз01210 0.0 101123